Flight Track Log - Related Links

Times and Time Zones

All times are in EDT time to prevent confusion due to time zone crossing. See the HAL351 flight status page for this flight to view local times or setup timezone preferences in your user account.

Time Position Orientation Groundspeed Altitude Reporting Facility
EDT Latitude Longitude Course Direction KTS MPH feet Rate Location/Type
Wed 12:51:24 PM 19.7167 -155.0500 285° West 160 184 900  Level Honolulu Center
Wed 12:52:24 PM 19.7667 -155.0667 343° North 220 253 2,400 1,983 Climbing Honolulu Center
Wed 12:53:25 PM 19.8333 -155.0500 13° North 270 311 4,900 2,579 Climbing Honolulu Center
Wed 12:54:00 PM 19.9787 -155.2215 325° Northwest  Level FlightAware Approximate
Wed 12:54:25 PM 19.8833 -155.1000 317° Northwest 270 311 7,600  Level Honolulu Center
Wed 12:55:00 PM 20.0253 -155.2843 285° West  Level FlightAware Approximate
Wed 12:55:25 PM 19.9333 -155.1667 309° West 280 322 10,000  Level Honolulu Center
Wed 12:56:00 PM 20.0458 -155.3665 285° West  Level FlightAware Approximate
Wed 12:56:25 PM 19.9833 -155.2333 309° West 310 357 11,500  Level Honolulu Center
Wed 12:57:25 PM 20.0333 -155.3167 303° West 350 403 13,100 2,000 Climbing Honolulu Center
Wed 12:58:25 PM 20.0833 -155.4167 298° West 350 403 15,500 2,350 Climbing Honolulu Center
Wed 12:59:25 PM 20.1167 -155.5167 290° West 360 414 17,800 2,100 Climbing Honolulu Center
Wed 01:00:25 PM 20.1667 -155.6167 298° West 370 426 19,700 1,800 Climbing Honolulu Center
Wed 01:01:25 PM 20.2000 -155.7167 290° West 380 437 21,400 1,736 Climbing Honolulu Center
Wed 01:02:26 PM 20.2500 -155.8167 298° West 400 460 23,200 1,884 Climbing Honolulu Center
Wed 01:03:26 PM 20.2833 -155.9333 287° West 400 460 25,200 2,000 Climbing Honolulu Center
Wed 01:04:26 PM 20.3333 -156.0500 295° West 410 472 27,200 1,400 Climbing Honolulu Center
Wed 01:05:26 PM 20.3833 -156.1500 298° West 400 460 28,000 400 Climbing Honolulu Center
Wed 01:06:26 PM 20.4333 -156.2667 295° West 400 460 28,000  Level Honolulu Center
Wed 01:07:26 PM 20.4667 -156.3667 290° West 400 460 28,000  Level Honolulu Center
Wed 01:08:26 PM 20.5167 -156.4667 298° West 400 460 28,000  Level Honolulu Center
Wed 01:09:26 PM 20.5500 -156.5833 287° West 400 460 28,000  Level Honolulu Center
Wed 01:10:27 PM 20.6000 -156.7000 295° West 400 460 28,000  Level Honolulu Center
Wed 01:11:27 PM 20.6500 -156.8000 298° West 400 460 28,000 -1,109 Level Honolulu Center
Wed 01:12:26 PM 20.6833 -156.9167 287° West 390 449 25,800 -2,500 Descending Honolulu Center
Wed 01:13:27 PM 20.7333 -157.0167 298° West 380 437 23,000 -2,579 Descending Honolulu Center
Wed 01:14:27 PM 20.7667 -157.1167 290° West 380 437 20,600 -2,300 Descending Honolulu Center
Wed 01:16:27 PM 20.8500 -157.3167 294° West 350 403 16,100 -2,200 Descending Honolulu Center
Wed 01:17:27 PM 20.8833 -157.4167 290° West 340 391 14,000 -2,100 Descending Honolulu Center
Wed 01:18:27 PM 20.9333 -157.5000 303° West 330 380 11,900 -1,537 Descending Honolulu Center
Wed 01:19:28 PM 20.9667 -157.5833 293° West 280 322 10,900 -1,650 Descending Honolulu Center
Wed 01:20:27 PM 20.9833 -157.6500 285° West 280 322 8,600 -2,067 Descending Honolulu Center
Wed 01:21:27 PM 21.0167 -157.7333 293° West 280 322 6,800 -1,636 Descending Honolulu Center
Wed 01:22:28 PM 21.0333 -157.8167 282° West 280 322 5,300 -1,388 Descending Honolulu Center
Wed 01:23:28 PM 21.0500 -157.9000 282° West 270 311 4,000 -1,300 Descending Honolulu Center

Login

Don't have an account? Register now (free) for customized features, flight alerts, and more!